Weather Service Report


492 
ASUS42 KCAE 231810
RWRCAE
REGIONAL WEATHER ROUNDUP
NATIONAL WEATHER SERVICE COLUMBIA SC
100 PM EST SUN NOV 23 2014

NOTE: "FAIR" INDICATES FEW OR NO CLOUDS BELOW 12,000 FEET WITH NO
SIGNIFICANT WEATHER AND/OR OBSTRUCTIONS TO VISIBILITY.

NOT ALL STATIONS ARE QUALITY CONTROLLED BY THE NATIONAL 
WEATHER SERVICE. USE DATA WITH CAUTION...ESPECIALLY 
DEWPOINT OBSERVATIONS.

SCZ001>056-GAZ040-063>065-077-231900-
...UPSTATE SOUTH CAROLINA...
  
CITY           SKY/WX    TMP DP  RH WIND       PRES   REMARKS
ANDERSON       LGT RAIN  47  46  97 NE12      29.97F FOG              
6HR MIN TEMP:  43; 6HR MAX TEMP:  47; 6HR PCP:  0.69;                

LIBERTY        RAIN      47  47 100 MISG      29.97F                  
6HR MIN TEMP:  28; 6HR MAX TEMP:  56;                                

SPARTANBURG    RAIN      46 N/A N/A N12       30.00F                  
CLEMSON        HVY RAIN  49  45  86 NE10      29.98F FOG              
6HR MIN TEMP:  45; 6HR MAX TEMP:  49; 6HR PCP:  0.92;                

GREENVILLE     HVY RAIN  46  43  89 N16       30.00F FOG              
6HR MIN TEMP:  41; 6HR MAX TEMP:  46; 6HR PCP:  0.61;                

GREENWOOD      LGT RAIN  51  49  92 E8G16     29.98F FOG              
6HR MIN TEMP:  44; 6HR MAX TEMP:  51; 6HR PCP:  0.93;                

GREER          HVY RAIN  45  44  97 NE10      29.98F VSB 1            
6HR MIN TEMP:  41; 6HR MAX TEMP:  44; 6HR PCP:  0.60;                

ROCK HILL      RAIN      49  48  97 VRB3      30.06F FOG              
6HR MIN TEMP:  43; 6HR MAX TEMP:  49; 6HR PCP:  0.19;                

CHESTER        RAIN      52  50  93 NE8       30.05F                  
LAURENS        HVY RAIN N/A N/A N/A NE7       29.98F                  


...CENTRAL SOUTH CAROLINA...
  
CITY           SKY/WX    TMP DP  RH WIND       PRES   REMARKS
COLUMBIA APT   LGT RAIN  57  55  93 E9        29.97F VSB 1            
6HR MIN TEMP:  50; 6HR MAX TEMP:  57; 6HR PCP:  0.73;                

COLUMBIA OWENS LGT RAIN  57  55  93 VRB5      29.99F FOG              
6HR MIN TEMP:  49; 6HR MAX TEMP:  57; 6HR PCP:  0.67;                

DARLINGTON     CLOUDY    57  54  88 NE5       30.04F                  
6HR MIN TEMP:  45; 6HR MAX TEMP:  57; 6HR PCP:  0.27;                

FLORENCE       LGT RAIN  61  58  90 E9        30.04F FOG              
6HR MIN TEMP:  49; 6HR MAX TEMP:  61; 6HR PCP:  0.33;                

MCENTIRE ANGB  LGT RAIN  58  58  99 E9        29.99F FOG              
6HR MIN TEMP:  51; 6HR MAX TEMP:  58; 6HR PCP:  0.85;                

ORANGEBURG     LGT RAIN  62  59  90 SE7       29.99F FOG              
6HR MIN TEMP:  54; 6HR MAX TEMP:  62; 6HR PCP:  0.56;                

SUMTER SHAW    RAIN      60  60 100 E6        30.00F                  
6HR MIN TEMP:  49; 6HR MAX TEMP:  60; 6HR PCP:  0.66;                

NEWBERRY       RAIN      50 N/A N/A E10G16    29.99F                  
AIKEN          RAIN      57  57 100 E10G16    29.98F                  
BARNWELL       RAIN      61  61 100 E12       29.94F                  
CAMDEN         LGT RAIN  55  55 100 E6        30.02F                  
LANCASTER      RAIN      50  50 100 NE5       30.05F                  
WINNSBORO      RAIN      54  54 100 E8        29.99F                  


...EASTERN AND COASTAL SOUTH CAROLINA...
  
CITY           SKY/WX    TMP DP  RH WIND       PRES   REMARKS
MYRTLE BEACH   LGT RAIN  63  59  88 E10       30.05F                  
N MYRTLE BCH   LGT RAIN  62  60  93 E10       30.05F FOG              
6HR MIN TEMP:  56; 6HR MAX TEMP:  62; 6HR PCP:  0.38;                

CONWAY         LGT RAIN  63  63 100 E9G20     30.04F                  
MARION         HVY RAIN  61  59  94 E3        30.06S                  
FLORENCE       LGT RAIN  61  58  90 E9        30.04F FOG              
6HR MIN TEMP:  49; 6HR MAX TEMP:  61; 6HR PCP:  0.33;                

DARLINGTON     CLOUDY    57  54  88 NE5       30.04F                  
6HR MIN TEMP:  45; 6HR MAX TEMP:  57; 6HR PCP:  0.27;                

CHARLESTON APT LGT RAIN  66  64  93 SE14G23   29.99F                  
6HR MIN TEMP:  57; 6HR MAX TEMP:  66; 6HR PCP:  0.99;                

MOUNT PLEASANT CLOUDY    64  64 100 E9        30.00F                  
WALTERBORO     DRIZZLE   64 N/A N/A SE8       29.99F                  
BEAUFORT       LGT RAIN  65  63  93 E10       29.96F FOG              
6HR MIN TEMP:  59; 6HR MAX TEMP:  65; 6HR PCP:  0.78;                



...EASTERN GEORGIA...
  
CITY           SKY/WX    TMP DP  RH WIND       PRES   REMARKS
AUGUSTA BUSH F LGT RAIN  59  58  96 E8        29.93F FOG              
6HR MIN TEMP:  55; 6HR MAX TEMP:  59; 6HR PCP:  0.57;                

AUGUSTA DANIEL LGT RAIN  59  58  96 E8        29.93F FOG              
6HR MIN TEMP:  55; 6HR MAX TEMP:  59; 6HR PCP:  0.57;                

THOMSON        CLOUDY    60  60 100 E7        29.96F                  
6HR MIN TEMP:  53; 6HR MAX TEMP:  60;                                

WASHINGTON     LGT RAIN  55 N/A N/A E7        29.92F                  
CLAXTON        LGT RAIN  66  66 100 E6        29.93F                  
SYLVANIA       DRIZZLE   64  63  97 SE9       29.94F                  
6HR MIN TEMP:  58; 6HR MAX TEMP:  64;                                

STATESBORO     RAIN      64  64 100 SE6       29.92F                  
6HR MIN TEMP:  58; 6HR MAX TEMP:  64;                                

SAVANNAH       CLOUDY    68  64  88 E7        29.93F FOG              
6HR MIN TEMP:  62; 6HR MAX TEMP:  68; 6HR PCP:  0.54;                



...SOUTHERN NORTH CAROLINA...
  
CITY           SKY/WX    TMP DP  RH WIND       PRES   REMARKS
CHARLOTTE      LGT RAIN  49  46  90 N6        30.07F FOG              
6HR MIN TEMP:  43; 6HR MAX TEMP:  49; 6HR PCP:  0.21;                

MONROE         LGT RAIN  50  48  93 VRB6      30.04F FOG              
6HR MIN TEMP:  41; 6HR MAX TEMP:  50; 6HR PCP:  0.20;                

WADESBORO      LGT RAIN  51  50  96 NE5       30.05F                  
6HR MIN TEMP:  40; 6HR MAX TEMP:  51; 6HR PCP:  0.08;                

ROCKINGHAM     DRIZZLE   53  52  96 E7        30.06F                  
6HR MIN TEMP:  42; 6HR MAX TEMP:  53; 6HR PCP:  0.13;                

RUTHERFORDTON  RAIN      42  41  97 N8        30.06F                  
6HR MIN TEMP:  40; 6HR MAX TEMP:  42; 6HR PCP:  0.22;                

ASHEVILLE      HVY RAIN  46  44  93 S6        30.01F FOG              
6HR MIN TEMP:  40; 6HR MAX TEMP:  46; 6HR PCP:  0.24;                


$$

Return to Home page


Western Regional Climate Center, wrcc@dri.edu